一网星座-0023星 (ONEWEB-0023 )

导读

ONEWEB-0023是英国OneWeb星座下的低轨通信小卫星,于2020年2月6日发射入轨,是OneWeb全球卫星互联网组网的组成单元。OneWeb项目计划通过数百颗低轨卫星组网,为全球未覆盖区域提供低成本宽带接入,服务偏远地区通信、基础设施互联等场景,助力全球互联网普及,推进空天地一体化网络建设。

基本信息
目录编号:
45136
目录名称:
ONEWEB-0023
国际标识:
2020-008F
轨道中心:
EARTH
卫星名称:
一网星座-0023星
卫星全名:
一网星座-0023星 (ONEWEB-0023 )
卫星状态:
在轨 (已飞行2409 天)
发射日期:
2020-02-06 UTC
国别 :
英国 (GB)
星等 :
--
该卫星已列入 空间交会检测服务 Space Conjunction Data Service (SCDS) ,当前飞行风险评估等级: 无高风险
轨道信息
数据来源 国际轨道数据 AOE轨道数据
星历时间 2026-09-11T01:52:47+0800
17小时前
查看轨道信息
2026-09-10T06:00:00+0800
1天前
查看轨道信息
半长轴 7599.865km 7599.862km
偏心率 0.0001718 0.0001706
轨道倾角 87.889° 87.889°
近地点辐角 107.170° 105.334°
升交点赤经 19.230° 19.395°
平近点角 252.961° 309.535°
近地点 1220.422km 1220.428km
远地点 1223.034km 1223.022km
周期 109.893分钟 109.893分钟
每日圈数 13.103702 13.103709
详细信息
平衡模式:
三轴稳定
覆盖范围:
全球
运营商:
一网卫星公司
运营商所在国:
英国
制造商(研发单位):
空客防务与航天公司
制造商所在国:
法国大都会
使用方式:
暂无
卫星简介
OneWeb卫星网络由648颗重约125公斤的微型卫星组成,运行在1200公里的轨道上。 每颗卫星都能够提供至少每秒8千兆位的吞吐量,以使用其高吞吐量的Ku频段有效载荷为家庭和移动平台提供互联网接入。该卫星仍在工作。
2D轨道图
3D轨道图
轨道高度分析图
轨道倾角分析图
轨道综合分析图
查看轨道综合分析图
与全量物体交会距离演化趋势
与全量物体交会风险概率演化趋势